{"data":{"norad_id":50002,"epoch":"2026-09-19T17:13:29.496000Z","epoch_age_seconds":89389,"freshness":"FRESH","line1":"1 50002U 21123B   26262.71770250 -.00000326  00000+0  00000+0 0  9993","line2":"2 50002   0.0306 245.2659 0000337 116.6586 358.0865  1.00272209  7978","mean_motion":1.00272209,"eccentricity":3.37e-5,"inclination_deg":0.0306,"raan_deg":245.2659,"arg_perigee_deg":116.6586,"mean_anomaly_deg":358.0865,"bstar":0,"rev_number":797,"period_min":1436.0908315085,"perigee_km":35785.055151556,"apogee_km":35787.897046479,"semimajor_km":42164.613099018,"source":"CELESTRAK","updated_at":"2026-09-20T09:00:35.301674Z"}}